EW0275 Weather Reports


time (UTC)temp
C
wind
direction
speed
KPH
gust
KPH
rain 1hr
cm
rain 24hr
cm
rain mn
cm
humidity
%
barometer
mb
20260506165402 13 283 8.0 16.1 0.00 1.88 1.55 75 1011.5
20260506165103 13 287 8.0 16.1 0.00 1.88 1.55 75 1011.5
20260506164802 12 290 8.0 14.5 0.00 1.88 1.55 75 1011.5
20260506164502 12 291 9.7 16.1 0.00 1.88 1.55 76 1011.6
20260506164203 12 286 9.7 22.5 0.00 1.88 1.55 75 1011.6
20260506163902 12 286 11.3 22.5 0.00 1.88 1.55 76 1011.5
20260506163602 12 285 9.7 22.5 0.00 1.88 1.55 75 1011.6
20260506163303 12 286 6.4 17.7 0.00 1.88 1.55 77 1011.6
20260506163004 12 297 4.8 16.1 0.00 1.88 1.55 75 1011.5
20260506162703 12 307 4.8 11.3 0.00 1.88 1.55 74 1011.4
20260506162403 12 302 4.8 11.3 0.00 1.88 1.55 76 1011.4
20260506161803 12 288 4.8 12.9 0.00 1.88 1.55 77 1011.2
20260506160603 12 289 4.8 19.3 0.00 1.88 1.55 79 1011.2
20260506160303 12 295 4.8 14.5 0.00 1.88 1.55 80 1011.1
20260506160004 11 290 3.2 14.5 0.00 1.88 1.55 80 1011.0
20260506155703 11 304 3.2 9.7 0.00 1.88 1.55 79 1011.1
20260506155103 11 290 6.4 14.5 0.00 1.88 1.55 80 1011.0
20260506154803 11 288 6.4 14.5 0.00 1.88 1.55 82 1011.0
20260506154502 11 284 6.4 16.1 0.00 1.88 1.55 83 1011.0
20260506154202 11 288 6.4 16.1 0.03 1.88 1.55 82 1010.9
20260506153902 11 291 6.4 16.1 0.03 1.88 1.55 82 1011.0
20260506153603 11 295 6.4 12.9 0.03 1.88 1.55 82 1010.8
20260506153303 11 301 6.4 16.1 0.03 1.88 1.55 83 1010.7
20260506152703 11 312 4.8 16.1 0.03 1.88 1.55 85 1010.6
20260506152402 11 310 3.2 8.0 0.03 1.88 1.55 86 1010.7
20260506151803 10 296 4.8 16.1 0.03 1.88 1.55 86 1010.7
20260506151503 10 294 4.8 16.1 0.03 1.88 1.55 86 1010.7
20260506151203 10 294 6.4 16.1 0.03 1.88 1.55 87 1010.8
20260506150903 10 299 8.0 19.3 0.03 1.88 1.55 88 1010.8
20260506150603 10 298 8.0 19.3 0.03 1.88 1.55 88 1010.7
20260506150003 10 301 6.4 17.7 0.03 1.88 1.55 89 1010.7
20260506145403 10 301 8.0 20.9 0.03 1.88 1.55 89 1010.5
20260506145103 10 295 9.7 20.9 0.03 1.88 1.55 90 1010.5
20260506144502 10 289 9.7 20.9 0.03 1.88 1.55 90 1010.5
20260506144203 10 287 6.4 17.7 0.00 1.85 1.52 90 1010.4
20260506143303 10 306 4.8 17.7 0.00 1.85 1.52 91 1010.2
20260506142703 10 308 6.4 17.7 0.00 1.85 1.52 91 1010.2
20260506142403 10 302 4.8 16.1 0.00 1.85 1.52 91 1010.0
20260506142103 10 300 4.8 16.1 0.00 1.85 1.52 92 1009.9
20260506141804 10 305 3.2 16.1 0.00 1.85 1.52 92 1009.7
20260506141503 10 319 3.2 16.1 0.00 1.85 1.52 93 1009.7
20260506141203 10 312 3.2 12.9 0.00 1.85 1.52 92 1009.8
20260506140903 10 304 3.2 12.9 0.00 1.85 1.52 93 1009.8
20260506140603 10 294 3.2 11.3 0.00 1.85 1.52 93 1009.8
20260506140303 10 300 3.2 9.7 0.00 1.85 1.52 93 1009.7
20260506140003 10 297 1.6 9.7 0.00 1.85 1.52 93 1009.5
20260506135703 10 298 1.6 6.4 0.00 1.85 1.52 94 1009.3
20260506135404 10 279 1.6 8.0 0.00 1.85 1.52 94 1009.5
20260506135103 10 302 3.2 9.7 0.00 1.85 1.52 94 1009.6
20260506134803 10 310 3.2 12.9 0.00 1.85 1.52 94 1009.4
20260506134503 9 312 3.2 12.9 0.00 1.85 1.52 94 1009.4
20260506134203 9 300 3.2 12.9 0.00 1.85 1.52 95 1009.4
20260506133903 9 293 3.2 12.9 0.00 1.85 1.52 94 1009.4
20260506133603 9 293 3.2 12.9 0.00 1.85 1.52 95 1009.4
20260506133303 9 306 3.2 6.4 0.03 1.85 1.52 95 1009.4
20260506133003 9 294 3.2 11.3 0.03 1.85 1.52 95 1009.4
20260506132703 9 294 3.2 11.3 0.03 1.85 1.52 95 1009.3
20260506132403 9 279 3.2 11.3 0.03 1.85 1.52 95 1009.4
20260506132103 9 281 1.6 11.3 0.03 1.85 1.52 95 1009.3
20260506131803 8 290 3.2 11.3 0.03 1.85 1.52 95 1009.3
20260506131503 8 290 3.2 11.3 0.03 1.85 1.52 95 1009.3
20260506131203 9 287 3.2 11.3 0.03 1.85 1.52 95 1009.3
20260506130903 9 279 1.6 11.3 0.03 1.85 1.52 95 1009.2
20260506130603 8 270 1.6 4.8 0.03 1.85 1.52 95 1009.0
20260506130304 9 0 0.0 4.8 0.03 1.85 1.52 96 1009.0
20260506130004 8 311 1.6 4.8 0.03 1.85 1.52 95 1009.0
20260506125702 8 0 0.0 4.8 0.03 1.85 1.52 95 1009.1
20260506125403 8 0 0.0 4.8 0.05 1.85 1.52 95 1009.2
20260506125103 8 104 1.6 4.8 0.05 1.85 1.52 95 1009.2
20260506124803 8 84 1.6 4.8 0.05 1.85 1.52 95 1009.2
20260506124503 8 77 1.6 4.8 0.05 1.85 1.52 95 1009.2
20260506124203 8 0 0.0 4.8 0.05 1.85 1.52 95 1009.2
20260506123903 8 0 0.0 3.2 0.05 1.85 1.52 95 1009.2
20260506123603 8 0 0.0 3.2 0.05 1.85 1.52 95 1009.2
20260506123304 8 322 1.6 6.4 0.05 1.83 1.50 95 1009.3
20260506123004 8 296 3.2 6.4 0.05 1.83 1.50 95 1009.2
20260506122703 8 292 3.2 9.7 0.05 1.83 1.50 95 1009.2
20260506122104 8 291 1.6 9.7 0.05 1.83 1.50 95 1009.4
20260506121803 8 285 1.6 4.8 0.05 1.83 1.50 95 1009.2
20260506121203 8 259 1.6 4.8 0.05 1.83 1.50 95 1008.8
20260506120903 8 225 1.6 4.8 0.08 1.83 1.50 95 1008.8
20260506120604 8 76 1.6 3.2 0.08 1.83 1.50 95 1008.5
20260506120004 8 325 3.2 11.3 0.08 1.83 1.50 95 1008.0
20260506115704 8 290 3.2 11.3 0.10 1.83 1.50 95 1008.1
20260506115403 8 281 1.6 9.7 0.08 1.80 1.47 95 1008.4
20260506114804 8 301 1.6 4.8 0.08 1.80 1.47 95 1008.5
20260506114500 8 296 1.6 4.8 0.08 1.80 1.47 95 1008.5
20260506114159 8 0 0.0 4.8 0.10 1.80 1.47 95 1008.4
20260506113859 8 186 1.6 4.8 0.10 1.80 1.47 95 1008.1
20260506113559 8 202 1.6 4.8 0.08 1.78 1.45 94 1008.0
20260506113300 8 248 1.6 6.4 0.10 1.78 1.45 95 1008.0
20260506113000 8 274 1.6 9.7 0.10 1.78 1.45 95 1008.2
20260506112659 8 281 3.2 9.7 0.10 1.78 1.45 95 1008.3
20260506112400 8 285 4.8 14.5 0.10 1.78 1.45 95 1008.6
20260506111759 8 292 4.8 14.5 0.13 1.78 1.45 95 1008.5
20260506110859 8 300 3.2 8.0 0.13 1.75 1.42 94 1008.0
20260506110600 8 298 3.2 14.5 0.13 1.75 1.42 95 1008.1
20260506110300 8 289 3.2 14.5 0.15 1.75 1.42 95 1008.0
20260506110000 8 289 3.2 14.5 0.15 1.75 1.42 95 1007.9
20260506105700 8 289 1.6 14.5 0.15 1.73 1.40 95 1007.8
20260506105059 8 0 0.0 6.4 0.15 1.73 1.40 95 1007.3
20260506104500 8 0 0.0 4.8 0.18 1.73 1.40 94 1007.0
20260506104200 8 0 0.0 4.8 0.18 1.70 1.37 94 1006.8
20260506103600 8 0 0.0 3.2 0.18 1.70 1.37 94 1006.7
20260506103300 8 93 1.6 6.4 0.18 1.68 1.35 95 1006.8
20260506102700 8 323 1.6 16.1 0.20 1.68 1.35 95 1006.6
20260506102400 8 309 1.6 16.1 0.20 1.68 1.35 95 1007.0
20260506102100 8 285 1.6 6.4 0.18 1.65 1.32 95 1006.8
20260506101800 8 270 1.6 6.4 0.20 1.65 1.32 95 1006.9
20260506101500 8 280 3.2 12.9 0.20 1.65 1.32 95 1007.1
20260506101201 8 280 3.2 12.9 0.20 1.63 1.30 95 1007.2
20260506100900 8 285 1.6 12.9 0.20 1.63 1.30 95 1007.0
20260506100600 8 287 1.6 12.9 0.20 1.63 1.30 95 1007.0
20260506100300 8 276 3.2 6.4 0.20 1.60 1.27 95 1007.1
20260506095700 8 281 1.6 4.8 0.20 1.57 1.24 94 1006.9
20260506095400 8 281 3.2 9.7 0.20 1.57 1.24 94 1007.0
20260506095100 8 285 4.8 14.5 0.23 1.57 1.24 94 1007.2
20260506094800 8 285 4.8 14.5 0.20 1.55 1.22 94 1007.3
20260506094200 8 291 4.8 12.9 0.20 1.52 1.19 95 1007.5
20260506093901 8 288 4.8 12.9 0.20 1.52 1.19 94 1007.5
20260506093600 8 285 4.8 12.9 0.23 1.52 1.19 94 1007.4
20260506093300 8 290 4.8 12.9 0.20 1.50 1.17 94 1007.3
20260506093000 8 291 4.8 12.9 0.23 1.50 1.17 94 1007.3
20260506092700 8 293 6.4 12.9 0.20 1.47 1.14 95 1007.2
20260506092401 8 298 6.4 14.5 0.20 1.47 1.14 94 1007.1
20260506092100 9 297 8.0 19.3 0.23 1.47 1.14 94 1007.1
20260506091800 9 295 8.0 19.3 0.23 1.45 1.12 94 1007.1
20260506091500 9 295 8.0 19.3 0.23 1.45 1.12 94 1007.2
20260506091200 10 288 8.0 19.3 0.23 1.42 1.09 95 1007.2
20260506090900 10 289 6.4 19.3 0.23 1.42 1.09 94 1007.1
20260506090600 10 288 6.4 19.3 0.23 1.40 1.07 95 1007.1
20260506090300 10 285 4.8 12.9 0.23 1.40 1.07 95 1007.0
20260506090000 10 289 4.8 12.9 0.23 1.37 1.04 95 1007.0
20260506085100 10 289 1.6 11.3 0.23 1.35 1.02 95 1006.7
20260506084500 10 0 0.0 3.2 0.23 1.32 0.99 95 1006.6
20260506084200 10 0 0.0 3.2 0.25 1.32 0.99 95 1006.5
20260506083900 10 278 1.6 4.8 0.25 1.32 0.99 95 1006.5
20260506083600 10 286 1.6 4.8 0.25 1.30 0.97 95 1006.4
20260506083300 10 291 1.6 11.3 0.25 1.30 0.97 95 1006.4
20260506083001 10 295 1.6 11.3 0.23 1.27 0.94 95 1006.4
20260506082701 10 293 1.6 11.3 0.25 1.27 0.94 95 1006.4
20260506082400 10 278 1.6 4.8 0.23 1.24 0.91 95 1006.4
20260506082101 10 278 1.6 4.8 0.23 1.24 0.91 95 1006.3
20260506081801 10 273 1.6 4.8 0.23 1.22 0.89 95 1006.2
20260506081200 10 277 1.6 6.4 0.23 1.19 0.86 95 1006.4
20260506080900 10 291 1.6 6.4 0.23 1.19 0.86 95 1006.3
20260506080600 10 278 3.2 16.1 0.23 1.17 0.84 95 1006.2
20260506080301 11 280 4.8 16.1 0.23 1.17 0.84 95 1006.2
20260506073001 11 298 1.6 6.4 0.18 1.02 0.69 95 1005.9
20260506072400 11 300 1.6 8.0 0.20 1.02 0.69 95 1005.9
20260506071801 11 287 1.6 6.4 0.20 0.99 0.66 95 1005.6
20260506071500 11 286 3.2 9.7 0.18 0.97 0.64 95 1005.7
20260506071200 11 294 4.8 12.9 0.18 0.97 0.64 95 1005.8
20260506070900 11 289 3.2 12.9 0.18 0.97 0.64 95 1005.8
20260506070600 11 283 6.4 16.1 0.15 0.94 0.61 95 1006.0
20260506062101 12 277 4.8 14.5 0.28 0.79 0.46 94 1006.2
20260506061800 12 279 6.4 14.5 0.30 0.79 0.46 94 1006.3
20260506061501 13 285 4.8 14.5 0.33 0.79 0.46 93 1006.2
20260506061201 13 296 3.2 14.5 0.36 0.79 0.46 93 1006.2
20260506060901 14 307 1.6 12.9 0.38 0.79 0.46 94 1006.3
20260506060601 15 0 0.0 3.2 0.38 0.79 0.46 95 1006.3
20260506060300 15 0 0.0 3.2 0.41 0.79 0.46 95 1006.3
20260506050901 15 0 0.0 0.0 0.08 0.41 0.08 95 1007.1
20260506050600 15 0 0.0 3.2 0.08 0.41 0.08 95 1007.1
20260506050301 15 0 0.0 3.2 0.05 0.38 0.05 95 1007.2
20260506045101 15 0 0.0 4.8 0.05 0.38 0.05 95 1007.5
20260506044801 15 0 0.0 4.8 0.08 0.38 0.05 95 1007.5
20260506044501 15 171 1.6 4.8 0.08 0.38 0.05 95 1007.5
20260506044201 15 159 1.6 4.8 0.05 0.36 0.03 95 1007.5
20260506043901 15 176 1.6 4.8 0.05 0.36 0.03 95 1007.5
20260506043601 15 174 1.6 4.8 0.05 0.36 0.03 95 1007.6
20260506043301 15 191 1.6 4.8 0.05 0.36 0.03 95 1007.7
20260506043002 15 174 1.6 4.8 0.05 0.36 0.03 94 1007.5
20260506042701 15 170 1.6 4.8 0.05 0.36 0.03 94 1007.6
20260506042401 15 162 1.6 4.8 0.05 0.36 0.03 94 1007.6
20260506042100 15 163 1.6 4.8 0.08 0.36 0.03 94 1007.5
20260506041501 15 184 1.6 4.8 0.08 0.36 0.03 95 1007.7
20260506041201 15 202 1.6 4.8 0.08 0.36 0.03 95 1007.6
20260506040901 15 226 1.6 4.8 0.05 0.33 0.00 95 1007.7
20260506040601 15 249 1.6 3.2 0.05 0.33 0.00 95 1007.6
20260506040300 15 0 0.0 3.2 0.08 0.33 0.00 94 1007.7
20260506035701 15 0 0.0 1.6 0.08 0.33 0.33 94 1007.7
20260506035401 15 0 0.0 1.6 0.08 0.33 0.33 94 1007.7
20260506035101 15 0 0.0 1.6 0.08 0.33 0.33 94 1007.7
20260506034801 15 0 0.0 1.6 0.05 0.30 0.30 94 1007.7
20260506034501 15 0 0.0 1.6 0.05 0.30 0.30 94 1007.7
20260506033900 15 0 0.0 0.0 0.05 0.30 0.30 94 1007.8
20260506033601 15 0 0.0 0.0 0.05 0.30 0.30 94 1007.8
20260506033301 15 0 0.0 0.0 0.05 0.30 0.30 94 1007.8
20260506033002 15 0 0.0 0.0 0.05 0.30 0.30 94 1007.8
20260506032701 15 0 0.0 0.0 0.08 0.30 0.30 94 1007.8
20260506032401 15 0 0.0 0.0 0.08 0.30 0.30 94 1007.8
20260506032101 15 0 0.0 0.0 0.05 0.28 0.28 94 1007.8
20260506031801 15 0 0.0 0.0 0.05 0.28 0.28 94 1007.9
20260506031501 15 0 0.0 0.0 0.05 0.28 0.28 94 1007.8
20260506031201 15 0 0.0 0.0 0.05 0.28 0.28 94 1007.8
20260506030901 15 0 0.0 0.0 0.05 0.28 0.28 94 1007.9
20260506030301 15 0 0.0 1.6 0.05 0.25 0.25 94 1007.9
20260506030002 15 0 0.0 3.2 0.05 0.25 0.25 94 1007.8
20260506025701 15 0 0.0 4.8 0.05 0.25 0.25 94 1007.9
20260506025401 15 0 0.0 4.8 0.05 0.25 0.25 93 1007.9
20260506025101 15 0 0.0 4.8 0.05 0.25 0.25 93 1007.9
20260506024801 15 0 0.0 3.2 0.05 0.25 0.25 93 1007.9
20260506024201 15 0 0.0 4.8 0.05 0.25 0.25 93 1008.0
20260506023901 15 0 0.0 4.8 0.05 0.25 0.25 93 1008.1
20260506023601 15 0 0.0 0.0 0.05 0.25 0.25 93 1008.2
20260506023302 15 0 0.0 0.0 0.05 0.25 0.25 93 1008.2
20260506023002 15 0 0.0 0.0 0.03 0.23 0.23 93 1008.3
20260506022701 15 0 0.0 0.0 0.03 0.23 0.23 93 1008.4
20260506022401 15 0 0.0 0.0 0.03 0.23 0.23 93 1008.2
20260506022101 15 0 0.0 0.0 0.03 0.23 0.23 93 1008.2
20260506021801 15 0 0.0 0.0 0.03 0.23 0.23 93 1008.2
20260506021201 15 0 0.0 1.6 0.03 0.23 0.23 93 1008.1
20260506020601 15 273 1.6 3.2 0.05 0.23 0.23 93 1008.1
20260506020002 15 269 1.6 3.2 0.03 0.20 0.20 92 1008.1
20260506015702 15 0 0.0 3.2 0.03 0.20 0.20 92 1008.1
20260506015401 15 0 0.0 0.0 0.05 0.20 0.20 92 1008.0
20260506015102 15 0 0.0 0.0 0.05 0.20 0.20 92 1007.9
20260506014801 15 0 0.0 0.0 0.05 0.20 0.20 92 1007.7
20260506014502 15 0 0.0 1.6 0.05 0.20 0.20 92 1007.7
20260506014202 15 0 0.0 3.2 0.05 0.20 0.20 92 1007.7
20260506013901 15 0 0.0 3.2 0.08 0.20 0.20 92 1007.7
20260506013301 15 0 0.0 3.2 0.08 0.20 0.20 92 1007.7
20260506013002 15 0 0.0 3.2 0.10 0.20 0.20 92 1007.7
20260506012702 15 243 1.6 4.8 0.10 0.20 0.20 91 1007.7
20260506012401 15 0 0.0 4.8 0.13 0.20 0.20 91 1007.7
20260506012101 15 0 0.0 4.8 0.13 0.20 0.20 91 1007.6
20260506011802 15 0 0.0 4.8 0.15 0.20 0.20 91 1007.6
20260506011502 15 0 0.0 0.0 0.15 0.20 0.20 91 1007.6
20260506010902 15 270 1.6 4.8 0.15 0.20 0.20 91 1007.7
20260506010602 15 276 1.6 6.4 0.13 0.18 0.18 91 1007.8
20260506010302 15 285 3.2 6.4 0.13 0.18 0.18 91 1007.7
20260506010002 15 284 3.2 12.9 0.13 0.18 0.18 91 1007.7
20260506005702 15 283 4.8 12.9 0.15 0.18 0.18 90 1007.7
20260506005401 15 275 4.8 12.9 0.15 0.15 0.15 90 1007.7
20260506005101 15 271 3.2 12.9 0.15 0.15 0.15 90 1008.0
20260506004801 15 268 4.8 11.3 0.15 0.15 0.15 90 1008.1
20260506004502 15 268 6.4 11.3 0.15 0.15 0.15 90 1008.1
20260506004202 15 264 6.4 16.1 0.15 0.15 0.15 90 1008.2
20260506003902 15 261 8.0 16.1 0.13 0.13 0.13 89 1008.1
20260506003602 15 258 8.0 17.7 0.13 0.13 0.13 89 1008.0
20260506003302 15 263 8.0 17.7 0.13 0.13 0.13 89 1008.1
20260506003002 15 270 6.4 17.7 0.10 0.10 0.10 89 1008.1
20260506002702 15 277 6.4 12.9 0.10 0.10 0.10 88 1007.9
20260506002101 15 279 6.4 14.5 0.08 0.08 0.08 88 1007.7
20260506001801 15 284 6.4 14.5 0.05 0.05 0.05 87 1007.7
20260506001501 15 288 6.4 17.7 0.05 0.05 0.05 87 1007.6
20260506001201 15 287 8.0 17.7 0.05 0.05 0.05 86 1007.6
20260506000901 16 282 9.7 20.9 0.05 0.05 0.05 85 1007.6
20260506000602 16 281 11.3 20.9 0.05 0.05 0.05 85 1007.7
20260506000302 16 283 12.9 24.1 0.05 0.05 0.05 83 1007.7
20260505235402 17 284 19.3 37.0 0.00 0.00 0.00 76 1007.7
20260505234502 20 279 12.9 40.2 0.00 0.00 0.00 63 1007.6
20260505234202 21 270 9.7 20.9 0.00 0.00 0.00 60 1007.3
20260505233902 21 263 8.0 16.1 0.00 0.00 0.00 59 1007.0
20260505233601 21 259 8.0 20.9 0.00 0.00 0.00 58 1007.0
20260505233301 21 258 8.0 20.9 0.00 0.00 0.00 58 1007.0
20260505232703 21 260 6.4 17.7 0.00 0.00 0.00 58 1006.8
20260505232401 21 261 6.4 17.7 0.00 0.00 0.00 58 1006.8
20260505232101 21 251 6.4 17.7 0.00 0.00 0.00 58 1006.8
20260505231802 21 256 6.4 14.5 0.00 0.00 0.00 58 1006.7
20260505231202 21 268 8.0 17.7 0.00 0.00 0.00 58 1006.7
20260505230902 21 265 8.0 20.9 0.00 0.00 0.00 58 1006.7
20260505230601 21 253 8.0 20.9 0.00 0.00 0.00 58 1006.7
20260505230301 21 241 6.4 20.9 0.00 0.00 0.00 58 1006.8
20260505225402 21 249 8.0 20.9 0.00 0.00 0.00 57 1006.7
20260505225102 21 249 8.0 20.9 0.00 0.00 0.00 58 1006.7
20260505224802 21 256 6.4 16.1 0.00 0.00 0.00 58 1006.9
20260505224502 21 258 6.4 16.1 0.00 0.00 0.00 58 1006.9
20260505223601 21 255 6.4 14.5 0.00 0.00 0.00 59 1006.9
20260505223002 21 263 6.4 14.5 0.00 0.00 0.00 58 1006.9
20260505222702 21 268 6.4 14.5 0.00 0.00 0.00 57 1006.9
20260505222401 21 261 4.8 12.9 0.00 0.00 0.00 57 1006.8
20260505222101 21 249 4.8 14.5 0.00 0.00 0.00 57 1006.9
20260505221802 21 237 4.8 14.5 0.00 0.00 0.00 58 1006.8
20260505221501 21 243 6.4 14.5 0.00 0.00 0.00 57 1006.9
20260505221202 21 252 4.8 14.5 0.00 0.00 0.00 57 1007.0
20260505220302 21 238 8.0 16.1 0.00 0.00 0.00 57 1006.9
20260505220002 21 246 8.0 17.7 0.00 0.00 0.00 56 1006.9
20260505215702 21 247 9.7 17.7 0.00 0.00 0.00 56 1006.9
20260505215402 21 259 9.7 19.3 0.00 0.00 0.00 56 1007.0
20260505215102 21 258 9.7 22.5 0.00 0.00 0.00 56 1007.0
20260505214802 21 262 9.7 22.5 0.00 0.00 0.00 56 1007.0
20260505214501 21 251 9.7 22.5 0.00 0.00 0.00 56 1007.0
20260505214202 21 250 9.7 22.5 0.00 0.00 0.00 56 1007.1
20260505213902 21 256 9.7 19.3 0.00 0.00 0.00 56 1007.0
20260505213601 21 261 8.0 19.3 0.00 0.00 0.00 57 1006.9
20260505213302 21 261 9.7 20.9 0.00 0.00 0.00 56 1007.0
20260505213002 21 263 9.7 22.5 0.00 0.00 0.00 56 1007.1
20260505212701 21 256 11.3 24.1 0.00 0.00 0.00 56 1007.0
20260505212102 21 257 11.3 24.1 0.00 0.00 0.00 57 1007.0
20260505211802 21 262 9.7 17.7 0.00 0.00 0.00 56 1007.0
20260505211502 21 261 9.7 22.5 0.00 0.00 0.00 56 1007.1
20260505211202 21 257 11.3 22.5 0.00 0.00 0.00 57 1007.1
20260505210902 21 255 11.3 29.0 0.00 0.00 0.00 56 1007.2
20260505210602 21 255 11.3 29.0 0.00 0.00 0.00 57 1007.2
20260505210302 21 252 9.7 29.0 0.00 0.00 0.00 56 1007.2
20260505210002 21 253 11.3 29.0 0.00 0.00 0.00 56 1007.3
20260505205102 21 247 12.9 29.0 0.00 0.00 0.00 56 1007.3
20260505204802 21 258 11.3 20.9 0.00 0.00 0.00 56 1007.3
20260505204502 21 257 9.7 22.5 0.00 0.00 0.00 57 1007.4
20260505204202 21 254 9.7 22.5 0.00 0.00 0.00 57 1007.4
20260505203902 21 251 9.7 27.4 0.00 0.00 0.00 56 1007.3
20260505203602 21 252 12.9 32.2 0.00 0.00 0.00 57 1007.4
20260505203302 21 257 12.9 32.2 0.00 0.00 0.00 56 1007.4
20260505203002 21 255 11.3 32.2 0.00 0.00 0.00 56 1007.5
20260505202702 21 257 11.3 30.6 0.00 0.00 0.00 57 1007.4
20260505202102 21 260 14.5 30.6 0.00 0.00 0.00 57 1007.4
20260505201802 21 256 12.9 32.2 0.00 0.00 0.00 56 1007.4
20260505201502 21 250 11.3 32.2 0.00 0.00 0.00 58 1007.5
20260505201202 21 249 11.3 32.2 0.00 0.00 0.00 57 1007.5
20260505200902 21 254 8.0 22.5 0.00 0.00 0.00 58 1007.5
20260505200602 21 259 8.0 16.1 0.00 0.00 0.00 58 1007.5
20260505200302 21 262 8.0 16.1 0.00 0.00 0.00 60 1007.6
20260505200002 21 257 8.0 16.1 0.00 0.00 0.00 59 1007.7
20260505195702 21 250 8.0 16.1 0.00 0.00 0.00 59 1007.7
20260505195402 21 241 9.7 19.3 0.00 0.00 0.00 59 1007.8
20260505195102 21 251 9.7 19.3 0.00 0.00 0.00 60 1007.8
20260505194802 21 253 11.3 30.6 0.00 0.00 0.00 60 1007.8
20260505194502 21 253 11.3 30.6 0.00 0.00 0.00 60 1007.8
20260505194202 21 252 11.3 30.6 0.00 0.00 0.00 60 1007.8
20260505193902 21 254 9.7 24.1 0.00 0.00 0.00 61 1007.8
20260505193603 21 269 8.0 22.5 0.00 0.00 0.00 61 1007.7
20260505193302 21 268 8.0 16.1 0.00 0.00 0.00 61 1007.7
20260505193002 21 270 6.4 16.1 0.00 0.00 0.00 61 1007.7
20260505192702 21 242 6.4 14.5 0.00 0.00 0.00 61 1007.7
20260505192402 21 238 6.4 14.5 0.00 0.00 0.00 60 1007.5
20260505191802 21 266 8.0 17.7 0.00 0.00 0.00 59 1007.6
20260505191502 21 263 8.0 17.7 0.00 0.00 0.00 59 1007.6
20260505191202 21 262 8.0 16.1 0.00 0.00 0.00 60 1007.7
20260505190902 21 260 8.0 17.7 0.00 0.00 0.00 59 1007.8
20260505190602 21 264 8.0 22.5 0.00 0.00 0.00 59 1007.7
20260505190303 21 248 8.0 22.5 0.00 0.00 0.00 57 1007.9
20260505190003 21 252 8.0 22.5 0.00 0.00 0.00 57 1007.9
20260505185703 21 248 8.0 17.7 0.00 0.00 0.00 56 1007.8
20260505185402 21 257 8.0 19.3 0.00 0.00 0.00 57 1007.9
20260505184802 21 256 8.0 19.3 0.00 0.00 0.00 55 1008.2
20260505184502 21 254 8.0 17.7 0.00 0.00 0.00 55 1008.1
20260505184203 21 253 8.0 17.7 0.00 0.00 0.00 55 1008.1
20260505183302 22 259 9.7 20.9 0.00 0.00 0.00 54 1008.1
20260505182703 22 260 11.3 20.9 0.00 0.00 0.00 53 1008.1
20260505182402 21 251 11.3 20.9 0.00 0.00 0.00 54 1008.2
20260505181802 21 251 14.5 30.6 0.00 0.00 0.00 54 1008.2
20260505181503 22 250 14.5 30.6 0.00 0.00 0.00 53 1008.2
20260505180903 22 256 14.5 27.4 0.00 0.00 0.00 53 1008.1
20260505180602 22 262 16.1 27.4 0.00 0.00 0.00 54 1008.1
20260505180303 22 270 17.7 33.8 0.00 0.00 0.00 53 1008.1
20260505175402 22 259 19.3 35.4 0.00 0.00 0.00 54 1008.0
20260505175102 22 257 20.9 41.8 0.00 0.00 0.00 53 1008.1
20260505174802 22 257 19.3 41.8 0.00 0.00 0.00 51 1008.1
20260505174203 22 258 20.9 45.1 0.00 0.00 0.00 53 1008.1
20260505173302 22 264 20.9 45.1 0.00 0.00 0.00 53 1008.3
20260505173002 22 262 19.3 45.1 0.00 0.00 0.00 55 1008.3
20260505172703 22 262 19.3 45.1 0.00 0.00 0.00 55 1008.2
20260505172102 21 262 12.9 29.0 0.00 0.00 0.00 56 1008.3
20260505171803 22 255 12.9 27.4 0.00 0.00 0.00 56 1008.3
20260505171503 22 251 12.9 27.4 0.00 0.00 0.00 55 1008.2
20260505171202 21 244 14.5 29.0 0.00 0.00 0.00 57 1008.2
20260505170903 21 243 16.1 29.0 0.00 0.00 0.00 56 1008.6
20260505170603 21 247 14.5 30.6 0.00 0.00 0.00 56 1008.4
20260505165703 22 255 16.1 30.6 0.00 0.00 0.00 55 1008.5